KC3BHK-2 Weather Reports


Display with metric or nautical units.
time (UTC)temp
F
wind
direction
speed
MPH
gust
MPH
rain 1hr
in
rain 24hr
in
rain mn
in
humidity
%
barometer
mb
20260504192055 78 125 5.0 14.0 0.00 0.00 0.00
20260504191551 79 226 8.0 15.0 0.00 0.00 0.00
20260504191046 77 181 7.0 14.0 0.00 0.00 0.00
20260504190538 77 257 9.0 14.0 0.00 0.00 0.00
20260504190034 76 183 6.0 13.0 0.00 0.00 0.00
20260504185529 76 195 9.0 14.0 0.00 0.00 0.00
20260504185025 78 172 4.0 11.0 0.00 0.00 0.00
20260504184520 77 221 9.0 15.0 0.00 0.00 0.00
20260504184016 77 214 8.0 15.0 0.00 0.00 0.00
20260504183508 75 186 12.0 15.0 0.00 0.00 0.00
20260504183003 75 200 11.0 14.0 0.00 0.00 0.00
20260504182459 77 194 7.0 13.0 0.00 0.00 0.00
20260504181954 73 172 9.0 16.0 0.00 0.00 0.00
20260504181449 76 231 14.0 12.0 0.00 0.00 0.00
20260504180437 73 155 6.0 14.0 0.00 0.00 0.00
20260504175932 73 190 5.0 11.0 0.00 0.00 0.00
20260504175428 75 214 7.0 14.0 0.00 0.00 0.00
20260504174923 74 170 5.0 12.0 0.00 0.00 0.00
20260504174418 75 159 4.0 12.0 0.00 0.00 0.00
20260504173914 73 307 2.0 16.0 0.00 0.00 0.00
20260504173406 75 166 12.0 12.0 0.00 0.00 0.00
20260504172901 74 197 7.0 15.0 0.00 0.00 0.00
20260504171852 73 211 6.0 12.0 0.00 0.00 0.00
20260504171348 75 139 9.0 12.0 0.00 0.00 0.00
20260504170843 73 142 8.0 13.0 0.00 0.00 0.00
20260504170336 73 218 7.0 13.0 0.00 0.00 0.00
20260504160235 72 186 7.0 10.0 0.00 0.00 0.00
20260504151145 69 235 10.0 12.0 0.00 0.00 0.00
20260504150640 68 249 7.0 15.0 0.00 0.00 0.00
20260504150133 68 172 7.0 11.0 0.00 0.00 0.00
20260504141042 65 190 5.0 8.0 0.00 0.00 0.00
20260504140538 64 194 3.0 10.0 0.00 0.00 0.00
20260504130433 57 174 5.0 8.0 0.00 0.00 0.00
20260504110223 47 166 1.0 4.0 0.00 0.00 0.00
20260504100117 45 218 2.0 3.0 0.00 0.00 0.00
20260504081925 42 70 0.0 0.0 0.00 0.00 0.00
20260504081419 43 70 0.0 0.0 0.00 0.00 0.00
20260504080914 41 70 0.0 0.0 0.00 0.00 0.00
20260504080409 40 70 0.0 0.0 0.00 0.00 0.00
20260504070301 38 70 0.0 0.0 0.00 0.00 0.00
20260504060152 36 70 0.0 0.0 0.00 0.00 0.00
20260504050549 36 70 0.0 0.0 0.00 0.00 0.00
20260504045538 37 70 0.0 0.0 0.00 0.00 0.00
20260504045030 37 70 0.0 0.0 0.00 0.00 0.00
20260504044525 37 70 0.0 0.0 0.00 0.00 0.00
20260504044020 37 70 0.0 0.0 0.00 0.00 0.00
20260504043515 37 70 0.0 0.0 0.00 0.00 0.00
20260504043009 37 70 0.0 0.0 0.00 0.00 0.00
20260504042504 37 70 0.0 0.0 0.00 0.00 0.00
20260504041956 36 70 0.0 2.0 0.00 0.00 0.00
20260504041451 36 70 0.0 0.0 0.00 0.00 0.00
20260504040441 37 104 0.0 0.0 0.00 0.00 0.00
20260504035935 39 104 0.0 0.0 0.00 0.00 0.00
20260504035430 38 104 0.0 0.0 0.00 0.00 0.00
20260504034416 37 104 0.0 0.0 0.00 0.00 0.00
20260504033911 38 104 0.0 0.0 0.00 0.00 0.00
20260504033406 40 104 0.0 0.0 0.00 0.00 0.00
20260504032901 40 104 0.0 0.0 0.00 0.00 0.00
20260504032356 40 104 0.0 0.0 0.00 0.00 0.00
20260504031848 40 104 0.0 0.0 0.00 0.00 0.00
20260504031342 41 104 0.0 2.0 0.00 0.00 0.00
20260504030837 39 104 1.0 2.0 0.00 0.00 0.00
20260504030332 41 219 0.0 0.0 0.00 0.00 0.00
20260504025827 41 219 0.0 0.0 0.00 0.00 0.00
20260504025322 40 219 0.0 0.0 0.00 0.00 0.00
20260504024814 41 219 0.0 0.0 0.00 0.00 0.00
20260504024309 40 219 0.0 0.0 0.00 0.00 0.00
20260504023804 41 219 0.0 0.0 0.00 0.00 0.00
20260504022754 40 219 0.0 0.0 0.00 0.00 0.00
20260504022249 40 219 0.0 0.0 0.00 0.00 0.00
20260504021741 42 219 0.0 0.0 0.00 0.00 0.00
20260504021237 42 219 0.0 0.0 0.00 0.00 0.00
20260504020732 41 219 0.0 0.0 0.00 0.00 0.00
20260504020227 43 219 0.0 0.0 0.00 0.00 0.00
20260504015722 42 219 0.0 0.0 0.00 0.00 0.00
20260504015217 43 219 0.0 0.0 0.00 0.00 0.00
20260504014709 43 219 0.0 0.0 0.00 0.00 0.00
20260504014204 43 219 0.0 0.0 0.00 0.00 0.00
20260504013659 44 219 0.0 0.0 0.00 0.00 0.00
20260504013154 44 219 0.0 0.0 0.00 0.00 0.00
20260504012144 45 219 0.0 0.0 0.00 0.00 0.00
20260504011131 45 219 0.0 0.0 0.00 0.00 0.00
20260504010626 47 219 0.0 0.0 0.00 0.00 0.00
20260504010121 47 219 0.0 0.0 0.00 0.00 0.00
20260504005616 46 219 0.0 0.0 0.00 0.00 0.00
20260504005111 47 219 0.0 0.0 0.00 0.00 0.00
20260504004603 47 219 0.0 0.0 0.00 0.00 0.00
20260504004058 49 219 0.0 0.0 0.00 0.00 0.00
20260504003553 49 219 0.0 0.0 0.00 0.00 0.00
20260504003048 49 219 0.0 0.0 0.00 0.00 0.00
20260504002543 50 219 0.0 0.0 0.00 0.00 0.00
20260504002039 51 219 0.0 0.0 0.00 0.00 0.00
20260504001531 53 219 0.0 0.0 0.00 0.00 0.00
20260504001026 53 219 0.0 0.0 0.00 0.00 0.00
20260504000521 53 219 0.0 0.0 0.00 0.00 0.00
20260504000016 55 219 0.0 0.0 0.00 0.00 0.00
20260503235512 56 219 0.0 0.0 0.00 0.00 0.00
20260503235007 56 219 0.0 3.0 0.00 0.00 0.00
20260503233954 58 266 4.0 5.0 0.00 0.00 0.00
20260503233449 60 280 2.0 7.0 0.00 0.00 0.00
20260503232945 60 266 3.0 8.0 0.00 0.00 0.00
20260503232440 61 263 2.0 9.0 0.00 0.00 0.00
20260503231935 62 285 4.0 10.0 0.00 0.00 0.00
20260503231428 61 291 8.0 10.0 0.00 0.00 0.00
20260503230923 62 269 4.0 10.0 0.00 0.00 0.00
20260503230418 62 277 8.0 15.0 0.00 0.00 0.00
20260503225914 62 287 7.0 11.0 0.00 0.00 0.00
20260503225409 63 259 8.0 11.0 0.00 0.00 0.00
20260503224903 63 302 6.0 12.0 0.00 0.00 0.00
20260503224356 65 291 6.0 9.0 0.00 0.00 0.00
20260503223851 64 266 5.0 10.0 0.00 0.00 0.00
20260503223346 64 250 5.0 13.0 0.00 0.00 0.00
20260503222841 64 290 3.0 10.0 0.00 0.00 0.00
20260503222336 66 253 7.0 13.0 0.00 0.00 0.00
20260503221832 67 294 5.0 6.0 0.00 0.00 0.00
20260503221324 66 309 5.0 12.0 0.00 0.00 0.00
20260503220820 65 274 2.0 8.0 0.00 0.00 0.00
20260503220316 67 266 5.0 10.0 0.00 0.00 0.00
20260503215811 66 294 6.0 18.0 0.00 0.00 0.00
20260503215306 65 308 3.0 15.0 0.00 0.00 0.00
20260503214254 66 274 3.0 10.0 0.00 0.00 0.00
20260503213749 64 252 8.0 14.0 0.00 0.00 0.00
20260503213245 66 257 12.0 15.0 0.00 0.00 0.00
20260503212740 67 264 2.0 12.0 0.00 0.00 0.00
20260503212236 66 274 12.0 19.0 0.00 0.00 0.00
20260503211731 65 236 18.0 16.0 0.00 0.00 0.00
20260503211224 66 273 14.0 15.0 0.00 0.00 0.00
20260503210719 67 248 5.0 10.0 0.00 0.00 0.00
20260503210215 66 280 8.0 14.0 0.00 0.00 0.00
20260503205710 69 267 11.0 10.0 0.00 0.00 0.00
20260503205206 67 11 1.0 12.0 0.00 0.00 0.00
20260503204701 67 269 12.0 14.0 0.00 0.00 0.00
20260503204154 66 312 4.0 13.0 0.00 0.00 0.00
20260503203649 65 276 7.0 16.0 0.00 0.00 0.00
20260503203144 66 281 13.0 18.0 0.00 0.00 0.00
20260503202135 68 260 8.0 13.0 0.00 0.00 0.00
20260503201631 68 314 3.0 9.0 0.00 0.00 0.00
20260503201123 67 308 7.0 12.0 0.00 0.00 0.00
20260503200619 64 255 10.0 11.0 0.00 0.00 0.00
20260503200114 65 277 7.0 18.0 0.00 0.00 0.00
20260503195610 65 264 10.0 13.0 0.00 0.00 0.00
20260503195105 66 233 11.0 10.0 0.00 0.00 0.00
20260503194601 67 215 2.0 15.0 0.00 0.00 0.00
20260503194053 68 288 2.0 13.0 0.00 0.00 0.00
20260503193548 65 323 5.0 21.0 0.00 0.00 0.00
20260503193044 62 283 8.0 18.0 0.00 0.00 0.00
20260503192539 64 249 12.0 20.0 0.00 0.00 0.00